SCP
0 0 0 -0 -0 -0 -0 0 0 0 0 0 0 0 0 0 0 0 0 0 0 0 0 0 0 0 0 0 0 0 -0 0 0 0 0 0 0 0 0 0 0 0 0 0 0 0 0
0 0 0 0 -0 -0 -0 0 0 0 0 0 0 0 0 0 0 0 0 0 0 0 0 0 0 0 0 0 0 0 0 0 0 0 0 0 0 0 0 0 0 0 0 0 0 0 0
0 0 0 0 0 -0 0 0 0 0 0 0 0 0 0 0 0 0 0 0 0 0 0 0 0 0 -0 0 0 0 0 -0 -0 0 0 0 0 0 0 0 0 0 0 0 0 0 0
0 0 0 0 0 0 0 0 0 0 0 0 0 0 0 0 0 0 0 0 0 0 0 0 0 0 0 0 0 0 0 0 0 0 0 0 0 0 0 0 0 0 0 0 0 0 0
0 0 0 0 0 0 0 0 0 0 0 0 0 0 0 0 0 0 0 0 0 0 0 0 0 0 0 -0 0 0 0 0 0 0 0 0 0 0 0 0 0 0 0 0 0 0 0
0 0 0 0 0 0 0 0 0 0 0 0 0 0 0 0 0 0 0 0 0 0 0 0 0 0 0 0 0 0 0 0 0 0 0 0 0 0 0 0 0 0 0 0 0 0 0
0 0 0 0 0 0 0 0 0 0 0 0 0 0 0 0 0 0 0 0 0 0 0 0 0 0 0 -0 0 0 -0 0 0 0 0 0 0 0 0 0 0 0 0 0 0 0 0
0 0 0 0 0 0 0 0 0 0 0 0 0 0 0 0 0 0 0 0 0 0 0 0 0 0 0 -0 0 0 -0 -0 -0 0 -0 0 0 0 0 0 0 0 0 0 0 0 0
0 0 0 0 0 0 0 0 0 0 0 0 0 0 0 0 0 0 0 0 0 0 0 0 0 0 -0 0 0 0 -0 -0 -0 0 0 0 0 0 0 0 0 0 0 0 0 0 0
0 0 0 0 0 0 0 0 0 0 0 0 0 0 0 0 0 0 0 0 0 0 0 0 0 0 0 0 0 0 -0 -0 -0 0 0 0 0 0 0 0 0 0 0 0 0 0 0
0 0 0 0 0 0 0 0 0 0 0 0 0 0 0 0 0 0 0 0 0 0 0 0 0 0 0 0 0 0 0 0 0 0 0 0 0 0 0 0 0 0 0 0 0 0 0
0 0 0 0 0 0 0 0 0 0 0 0 0 0 0 0 0 0 0 0 0 0 0 0 0 0 0 0 0 0 0 0 0 0 0 0 0 0 0 0 0 0 0 0 0 0 0
0 0 0 0 0 0 0 0 0 0 0 0 0 0 0 0 0 0 0 0 0 0 0 0 0 0 0 0 0 0 0 0 0 0 0 0 0 0 0 0 0 0 0 0 0 0 0
0 0 0 0 0 0 0 0 0 0 0 0 0 0 0 0 0 0 0 0 0 0 0 0 0 0 0 0 0 0 0 0 0 0 0 0 0 0 0 0 0 0 0 0 0 0 0
0 0 0 0 0 0 0 0 0 0 0 0 0 0 0 0 0 0 0 0 0 0 0 0 0 0 0 0 0 0 0 0 0 0 0 0 0 0 0 0 0 0 0 0 0 0 0
0 0 0 0 0 0 0 0 0 0 0 0 0 0 0 0 0 0 0 0 0 0 0 0 0 0 0 0 0 0 0 0 0 0 0 0 0 0 0 0 0 0 0 0 0 0 0
0 0 0 0 0 0 0 0 0 0 0 0 0 0 0 0 0 0 0 0 0 0 0 0 0 0 0 0 0 0 0 0 0 0 0 0 0 0 0 0 0 0 0 0 0 0 0
0 0 0 0 0 0 0 0 0 0 0 0 0 0 0 0 0 0 0 0 0 0 0 0 0 0 0 0 0 0 0 0 0 0 0 0 0 0 0 0 0 0 0 0 0 0 0
0 0 0 0 0 0 0 0 0 0 0 0 0 0 0 0 0 0 0 0 0 0 0 0 0 0 0 0 0 0 0 0 0 0 0 0 0 0 0 0 0 0 0 0 0 0 0
0 0 0 0 0 0 0 0 0 0 0 0 0 0 0 0 0 0 0 0 0 0 0 0 0 0 0 0 0 0 0 0 0 0 0 0 0 0 0 0 0 0 0 0 0 0 0
0 0 0 0 0 0 0 0 0 0 0 0 0 0 0 0 0 0 0 0 0 0 0 0 0 0 0 0 0 0 0 0 0 0 0 0 0 0 0 0 0 0 0 0 0 0 0
0 0 0 0 0 0 0 0 0 0 0 0 0 0 0 0 0 0 0 0 0 0 0 0 0 0 0 0 0 0 0 0 0 0 0 0 0 0 0 0 0 0 0 0 0 0 0
0 0 0 0 0 0 0 0 0 0 0 0 0 0 0 0 0 0 0 0 0 0 0 0 0 0 0 0 0 0 0 0 0 0 0 0 0 0 0 0 0 0 0 0 0 0 0
0 0 0 0 0 0 0 0 0 0 0 0 0 0 0 0 0 0 0 0 0 0 0 0 0 0 0 0 0 0 0 0 0 0 0 0 0 0 0 0 0 0 0 0 0 0 0
0 0 0 0 0 0 0 0 0 0 0 0 0 0 0 0 0 0 0 0 0 0 0 0 0 0 0 0 0 0 0 0 0 0 0 0 0 0 0 0 0 0 0 0 0 0 0
0 0 0 0 0 0 0 0 0 0 0 0 0 0 0 0 0 0 0 0 0 0 0 0 0 0 0 0 0 0 0 0 0 0 0 0 0 0 0 0 0 0 0 0 0 0 0
0 0 0 0 0 0 0 0 0 0 0 0 0 0 0 0 0 0 0 0 0 0 0 0 0 0 0 0 0 0 0 0 0 0 0 0 0 0 0 0 0 0 0 0 0 0 0
0 0 0 0 0 0 0 0 0 0 0 0 0 0 0 0 0 0 0 0 0 0 0 0 0 0 0 0 0 0 0 0 0 0 0 0 0 0 0 0 0 0 0 0 0 0 0
0 0 0 0 0 0 0 0 0 0 0 0 0 0 0 0 0 0 0 0 0 0 0 0 0 0 0 0 0 0 0 0 0 0 0 0 0 0 0 0 0 0 0 0 0 0 0
Wind_Speed_500mb
21 22 21 14 11 12 15 19 22 25 28 31 33 36 36 33 36 30 24 21 27 31 42 48 38 28 17 27 26 34 42 22 12 8 2 8 12 10 7 6 1 11 11 18 17 21 27
19 20 20 13 9 11 14 17 21 25 28 31 32 34 34 31 32 25 20 21 28 31 32 30 25 23 29 24 36 34 33 14 12 8 0 4 5 5 2 2 5 9 11 21 26 34 23
18 18 17 11 8 10 13 17 20 25 28 30 31 32 33 31 31 22 16 15 23 36 40 36 20 18 72 43 32 28 17 13 14 8 11 5 5 3 7 8 8 5 7 5 25 31 15
18 17 15 6 5 8 13 17 21 25 29 32 31 29 29 27 28 17 13 19 20 18 13 12 18 23 21 45 27 24 22 3 8 4 15 15 10 10 16 11 12 10 9 8 20 28 14
19 19 17 6 5 8 12 16 21 24 28 32 32 29 27 23 23 15 15 23 26 23 19 10 15 13 11 38 49 35 41 32 27 25 22 16 34 25 30 7 9 15 5 8 11 17 7
18 16 15 6 4 7 11 14 19 24 27 30 32 30 27 21 17 13 22 25 19 21 15 13 24 13 25 41 46 38 39 31 17 26 23 26 21 10 11 12 2 5 5 6 4 7 16
16 16 13 6 6 8 10 14 18 23 28 30 31 30 28 21 12 9 20 26 1 22 68 48 33 37 35 10 46 50 19 49 34 30 10 27 19 11 9 12 9 6 4 5 9 7 9
20 16 13 6 6 8 11 16 18 23 27 31 30 29 28 19 10 15 11 12 17 30 25 35 51 25 24 40 27 58 43 18 31 21 6 13 18 9 12 14 10 7 3 6 10 14 4
22 19 15 9 8 8 10 14 17 23 28 31 30 29 25 15 7 12 9 22 44 32 13 9 19 33 11 40 28 43 32 15 19 17 24 16 5 10 7 15 25 10 6 7 12 8 9
21 21 18 12 11 12 12 14 17 23 27 30 30 28 22 16 5 12 14 37 40 14 9 13 14 19 24 6 15 41 29 9 13 8 6 13 10 12 14 11 10 10 9 13 19 12 7
22 20 20 15 13 14 14 17 18 23 28 30 29 25 19 15 7 7 8 35 27 4 4 6 8 11 26 19 12 40 23 34 15 8 9 3 9 9 7 15 5 14 15 21 24 21 8
26 20 18 17 15 16 17 17 20 24 28 28 28 17 18 11 13 13 12 25 22 6 7 1 6 7 8 19 13 20 31 19 17 7 12 4 5 5 5 13 7 17 13 16 1 6 3
28 23 18 18 17 17 16 21 21 25 28 29 26 15 15 14 9 11 20 24 7 6 3 4 4 4 8 10 11 7 21 24 10 9 14 9 5 7 20 8 11 16 8 8 9 6 8
30 28 20 18 18 19 16 18 21 29 31 30 22 10 12 16 11 4 15 6 7 5 4 2 6 11 8 9 7 12 6 7 15 10 5 6 10 10 14 3 7 12 2 4 9 4 12
34 30 25 21 18 23 20 17 20 30 32 28 17 7 7 13 7 3 6 5 1 6 9 11 7 8 3 5 5 7 8 5 5 11 8 6 8 9 4 7 6 9 6 3 8 7 4
37 34 32 22 24 23 22 15 19 31 32 26 12 7 6 8 6 4 8 6 5 7 9 5 8 4 7 3 3 5 3 5 3 5 5 5 6 4 9 2 17 10 4 4 4 7 9
41 38 33 25 30 26 23 15 18 29 30 22 8 5 5 1 2 6 6 7 6 8 9 5 7 8 6 7 4 2 2 1 1 5 7 6 7 10 5 10 4 7 7 7 4 2 5
51 36 35 33 27 20 25 14 20 26 25 17 5 1 3 6 9 6 6 11 10 7 8 5 9 8 9 10 5 5 8 5 1 2 4 5 7 6 1 6 14 7 7 7 6 11 3
51 40 36 36 30 26 26 18 20 23 21 13 6 5 4 13 7 4 4 6 6 5 3 4 6 5 3 9 7 3 8 10 10 5 7 6 1 5 5 7 2 7 4 5 5 3 9
59 51 44 42 37 23 25 17 23 23 18 9 5 1 4 7 10 13 11 9 7 7 5 10 8 8 7 4 5 8 7 5 7 7 9 8 5 12 12 8 6 3 6 4 8 4 4
59 56 50 46 37 31 24 21 24 23 18 10 6 3 4 3 3 9 7 9 11 10 7 10 4 6 12 7 4 8 5 4 6 8 6 7 10 5 2 4 5 7 9 5 11 9 10
63 63 51 45 39 26 26 22 22 24 20 19 8 10 7 5 20 11 3 11 15 8 11 7 8 10 9 13 14 16 12 5 8 4 5 7 5 5 7 0 6 6 13 12 11 6 13
69 63 59 53 51 36 29 24 22 23 23 17 17 16 8 15 6 8 9 12 14 23 2 1 20 10 8 8 18 17 13 17 13 11 5 6 9 6 7 7 6 11 15 13 5 8 11
72 62 59 53 50 38 29 28 28 31 28 28 23 20 12 6 6 8 13 7 15 8 16 11 24 12 18 35 38 29 27 21 15 13 5 8 8 5 5 6 6 9 3 6 12 16 17
79 67 63 56 49 41 35 30 28 33 26 32 31 24 14 5 7 8 22 14 30 19 9 11 6 9 47 24 8 8 6 9 3 1 4 5 8 3 7 6 12 6 10 13 13 14 16
83 77 67 56 54 46 35 24 31 26 23 31 32 37 12 21 17 18 13 24 10 7 6 8 22 45 28 7 6 10 11 9 7 4 8 7 9 7 5 8 11 12 6 18 18 9 32
80 72 64 57 54 43 32 24 29 21 27 26 26 37 18 7 20 34 10 20 20 12 7 15 22 21 18 4 4 7 8 4 8 14 11 3 4 9 6 6 16 10 29 27 11 13 32
79 66 55 59 51 42 32 25 22 30 23 25 25 34 27 10 31 29 22 21 26 25 10 26 14 8 5 6 7 7 6 10 3 7 12 15 14 8 6 4 16 40 19 17 10 20 17
66 56 57 61 48 38 23 23 26 23 23 25 23 29 27 12 15 26 22 19 26 29 18 55 4 14 26 6 2 5 5 4 3 6 2 4 12 10 18 13 4 89 16 47 18 7 9
Wind_Direction_500mb
7 5 6 18 46 46 38 34 29 22 19 19 17 14 13 17 12 21 33 38 57 78 104 106 113 113 95 69 15 359 357 349 344 346 174 143 158 151 153 156 2 206 273 303 333 332 326
6 5 4 12 41 38 32 27 22 17 17 16 15 14 12 19 14 25 46 70 81 98 104 103 101 96 80 58 11 355 352 13 358 17 75 164 132 146 238 231 136 3 338 329 359 7 44
1 3 5 9 33 35 26 17 16 13 13 13 13 14 13 16 18 29 57 97 96 100 109 109 94 54 58 23 13 6 1 4 347 32 74 70 212 113 30 353 6 292 295 346 31 358 28
352 354 358 14 40 29 20 13 9 11 9 5 7 14 17 16 21 35 66 111 111 115 124 105 80 89 78 28 36 12 25 1 311 288 78 66 72 96 32 321 14 28 53 7 20 17 30
344 347 349 357 14 17 18 11 2 7 7 2 1 5 18 19 31 62 90 119 102 100 115 79 52 70 51 12 32 22 18 16 75 119 111 85 85 71 36 44 34 23 354 352 333 48 348
337 341 343 330 335 357 7 8 1 360 4 2 356 358 8 20 43 119 91 126 120 117 98 61 48 65 40 29 28 21 37 28 115 108 77 51 61 70 20 45 108 300 332 318 306 348 66
326 329 337 310 309 337 355 354 359 357 358 360 355 353 357 12 50 43 183 137 85 72 69 73 59 94 55 69 41 30 28 48 71 65 87 36 62 50 64 73 149 160 179 242 291 314 95
318 323 324 287 288 315 340 338 352 354 354 355 356 352 354 6 54 36 163 194 151 134 97 67 57 100 68 57 40 29 47 63 51 55 44 45 42 340 81 55 23 11 105 290 288 313 356
311 315 312 285 274 292 317 326 345 349 350 352 354 355 357 11 59 42 117 150 140 131 95 50 44 43 119 59 40 15 30 48 61 49 54 81 342 44 96 47 14 331 206 262 250 270 255
301 307 303 279 269 283 303 320 342 345 349 349 352 355 357 10 48 49 109 149 149 133 89 343 5 13 11 128 47 24 37 37 47 69 66 79 351 64 40 20 9 305 1 317 307 331 271
286 297 301 288 276 281 298 319 333 343 346 347 347 346 359 12 19 55 122 173 167 108 54 353 34 41 55 78 308 8 37 68 75 54 78 227 14 47 68 332 304 251 312 285 272 271 21
280 287 294 286 275 285 302 315 325 340 341 343 337 342 355 5 39 58 117 158 158 63 232 115 50 23 55 47 26 31 32 71 57 61 41 50 327 58 113 308 251 282 298 284 109 105 17
268 273 279 274 270 277 303 311 322 339 338 338 331 312 340 12 28 64 134 138 57 149 332 136 115 69 98 17 21 75 55 44 42 42 359 341 15 355 36 348 322 349 6 345 349 353 243
264 266 266 270 272 278 288 299 327 337 333 333 328 299 347 357 3 52 151 74 217 116 171 171 115 75 83 6 32 28 81 62 26 51 99 34 340 24 358 12 284 299 357 173 281 274 282
255 262 262 252 254 271 283 293 341 329 325 328 317 282 335 355 356 131 147 84 169 166 151 140 91 98 68 15 84 80 59 86 61 26 122 86 276 341 76 28 7 337 43 139 259 258 297
251 254 254 253 263 268 277 297 341 317 320 320 303 257 284 359 68 129 79 129 145 129 132 111 138 127 149 346 93 80 114 281 56 71 200 221 326 275 323 93 49 87 327 36 8 287 284
245 244 247 247 262 277 271 304 321 312 315 314 290 240 326 84 156 77 127 162 139 131 142 125 141 114 130 165 135 137 141 51 25 342 97 127 128 288 25 27 359 354 16 13 141 187 279
250 239 248 250 261 259 270 286 305 310 313 304 265 285 31 175 53 62 131 141 126 132 123 86 90 103 145 165 156 152 148 123 336 167 107 186 158 237 146 44 69 85 152 129 128 291 260
242 239 239 257 259 270 266 285 299 305 305 291 242 235 262 191 149 124 134 79 93 120 146 120 108 101 129 152 113 139 131 125 75 96 158 227 321 356 309 346 127 95 155 159 126 109 231
248 236 235 247 255 254 259 280 294 304 295 261 237 320 46 96 104 134 145 155 127 84 85 90 112 99 97 114 44 179 139 138 113 49 58 151 123 165 196 202 131 206 193 176 164 140 226
245 248 232 239 244 244 258 270 283 298 281 220 207 214 175 217 156 116 104 132 140 163 121 136 76 180 152 115 88 179 139 105 77 3 57 98 177 166 211 183 126 196 228 198 204 210 185
244 247 228 231 241 233 248 262 276 289 268 221 214 155 141 92 126 104 357 206 160 150 144 192 158 142 160 154 181 191 133 186 188 69 66 3 187 99 321 193 141 270 242 230 244 213 267
245 247 230 229 240 228 230 248 266 273 251 220 215 190 174 164 131 112 206 178 176 130 49 133 155 120 136 172 126 98 102 117 134 145 128 87 128 92 262 16 32 318 220 195 218 197 165
244 248 231 228 240 226 222 239 256 262 249 231 231 191 171 202 183 200 155 126 151 138 144 128 148 117 145 134 106 92 79 73 71 51 99 125 91 86 189 35 9 248 267 147 205 236 218
247 245 225 227 234 224 222 236 246 255 242 238 229 202 191 158 158 147 141 116 109 104 88 119 141 184 151 128 74 61 5 21 330 36 358 78 123 80 136 186 298 336 196 173 166 278 196
247 245 222 228 234 222 223 224 248 246 255 232 224 211 205 139 219 151 133 157 138 120 38 91 127 149 152 103 102 162 197 186 227 322 109 66 76 114 94 145 224 233 197 142 113 291 204
226 223 219 228 227 218 214 216 245 245 241 214 212 207 207 167 164 159 165 180 152 132 116 138 152 174 194 118 130 172 225 156 181 180 172 127 10 168 171 215 287 206 148 134 92 236 183
214 215 219 215 217 212 205 223 227 243 223 215 215 209 209 206 174 187 175 159 158 168 151 151 109 190 115 183 165 199 157 210 137 187 181 170 151 188 86 95 278 152 123 166 205 148 185
207 212 203 215 214 204 196 212 230 221 211 216 221 214 212 215 167 188 189 183 187 184 160 168 181 156 168 126 195 108 170 146 151 243 13 262 191 180 184 211 160 179 203 198 174 195 247
Wind_Speed_850mb
21 22 21 14 11 12 15 19 22 25 28 31 33 36 36 33 36 30 24 21 27 31 42 48 38 28 17 27 26 34 42 22 12 8 2 8 12 10 7 6 1 11 11 18 17 21 27
19 20 20 13 9 11 14 17 21 25 28 31 32 34 34 31 32 25 20 21 28 31 32 30 25 23 29 24 36 34 33 14 12 8 0 4 5 5 2 2 5 9 11 21 26 34 23
18 18 17 11 8 10 13 17 20 25 28 30 31 32 33 31 31 22 16 15 23 36 40 36 20 18 72 43 32 28 17 13 14 8 11 5 5 3 7 8 8 5 7 5 25 31 15
18 17 15 6 5 8 13 17 21 25 29 32 31 29 29 27 28 17 13 19 20 18 13 12 18 23 21 45 27 24 22 3 8 4 15 15 10 10 16 11 12 10 9 8 20 28 14
19 19 17 6 5 8 12 16 21 24 28 32 32 29 27 23 23 15 15 23 26 23 19 10 15 13 11 38 49 35 41 32 27 25 22 16 34 25 30 7 9 15 5 8 11 17 7
18 16 15 6 4 7 11 14 19 24 27 30 32 30 27 21 17 13 22 25 19 21 15 13 24 13 25 41 46 38 39 31 17 26 23 26 21 10 11 12 2 5 5 6 4 7 16
16 16 13 6 6 8 10 14 18 23 28 30 31 30 28 21 12 9 20 26 1 22 68 48 33 37 35 10 46 50 19 49 34 30 10 27 19 11 9 12 9 6 4 5 9 7 9
20 16 13 6 6 8 11 16 18 23 27 31 30 29 28 19 10 15 11 12 17 30 25 35 51 25 24 40 27 58 43 18 31 21 6 13 18 9 12 14 10 7 3 6 10 14 4
22 19 15 9 8 8 10 14 17 23 28 31 30 29 25 15 7 12 9 22 44 32 13 9 19 33 11 40 28 43 32 15 19 17 24 16 5 10 7 15 25 10 6 7 12 8 9
21 21 18 12 11 12 12 14 17 23 27 30 30 28 22 16 5 12 14 37 40 14 9 13 14 19 24 6 15 41 29 9 13 8 6 13 10 12 14 11 10 10 9 13 19 12 7
22 20 20 15 13 14 14 17 18 23 28 30 29 25 19 15 7 7 8 35 27 4 4 6 8 11 26 19 12 40 23 34 15 8 9 3 9 9 7 15 5 14 15 21 24 21 8
26 20 18 17 15 16 17 17 20 24 28 28 28 17 18 11 13 13 12 25 22 6 7 1 6 7 8 19 13 20 31 19 17 7 12 4 5 5 5 13 7 17 13 16 1 6 3
28 23 18 18 17 17 16 21 21 25 28 29 26 15 15 14 9 11 20 24 7 6 3 4 4 4 8 10 11 7 21 24 10 9 14 9 5 7 20 8 11 16 8 8 9 6 8
30 28 20 18 18 19 16 18 21 29 31 30 22 10 12 16 11 4 15 6 7 5 4 2 6 11 8 9 7 12 6 7 15 10 5 6 10 10 14 3 7 12 2 4 9 4 12
34 30 25 21 18 23 20 17 20 30 32 28 17 7 7 13 7 3 6 5 1 6 9 11 7 8 3 5 5 7 8 5 5 11 8 6 8 9 4 7 6 9 6 3 8 7 4
37 34 32 22 24 23 22 15 19 31 32 26 12 7 6 8 6 4 8 6 5 7 9 5 8 4 7 3 3 5 3 5 3 5 5 5 6 4 9 2 17 10 4 4 4 7 9
41 38 33 25 30 26 23 15 18 29 30 22 8 5 5 1 2 6 6 7 6 8 9 5 7 8 6 7 4 2 2 1 1 5 7 6 7 10 5 10 4 7 7 7 4 2 5
51 36 35 33 27 20 25 14 20 26 25 17 5 1 3 6 9 6 6 11 10 7 8 5 9 8 9 10 5 5 8 5 1 2 4 5 7 6 1 6 14 7 7 7 6 11 3
51 40 36 36 30 26 26 18 20 23 21 13 6 5 4 13 7 4 4 6 6 5 3 4 6 5 3 9 7 3 8 10 10 5 7 6 1 5 5 7 2 7 4 5 5 3 9
59 51 44 42 37 23 25 17 23 23 18 9 5 1 4 7 10 13 11 9 7 7 5 10 8 8 7 4 5 8 7 5 7 7 9 8 5 12 12 8 6 3 6 4 8 4 4
59 56 50 46 37 31 24 21 24 23 18 10 6 3 4 3 3 9 7 9 11 10 7 10 4 6 12 7 4 8 5 4 6 8 6 7 10 5 2 4 5 7 9 5 11 9 10
63 63 51 45 39 26 26 22 22 24 20 19 8 10 7 5 20 11 3 11 15 8 11 7 8 10 9 13 14 16 12 5 8 4 5 7 5 5 7 0 6 6 13 12 11 6 13
69 63 59 53 51 36 29 24 22 23 23 17 17 16 8 15 6 8 9 12 14 23 2 1 20 10 8 8 18 17 13 17 13 11 5 6 9 6 7 7 6 11 15 13 5 8 11
72 62 59 53 50 38 29 28 28 31 28 28 23 20 12 6 6 8 13 7 15 8 16 11 24 12 18 35 38 29 27 21 15 13 5 8 8 5 5 6 6 9 3 6 12 16 17
79 67 63 56 49 41 35 30 28 33 26 32 31 24 14 5 7 8 22 14 30 19 9 11 6 9 47 24 8 8 6 9 3 1 4 5 8 3 7 6 12 6 10 13 13 14 16
83 77 67 56 54 46 35 24 31 26 23 31 32 37 12 21 17 18 13 24 10 7 6 8 22 45 28 7 6 10 11 9 7 4 8 7 9 7 5 8 11 12 6 18 18 9 32
80 72 64 57 54 43 32 24 29 21 27 26 26 37 18 7 20 34 10 20 20 12 7 15 22 21 18 4 4 7 8 4 8 14 11 3 4 9 6 6 16 10 29 27 11 13 32
79 66 55 59 51 42 32 25 22 30 23 25 25 34 27 10 31 29 22 21 26 25 10 26 14 8 5 6 7 7 6 10 3 7 12 15 14 8 6 4 16 40 19 17 10 20 17
66 56 57 61 48 38 23 23 26 23 23 25 23 29 27 12 15 26 22 19 26 29 18 55 4 14 26 6 2 5 5 4 3 6 2 4 12 10 18 13 4 89 16 47 18 7 9
Wind_Direction_850mb
7 5 6 18 46 46 38 34 29 22 19 19 17 14 13 17 12 21 33 38 57 78 104 106 113 113 95 69 15 359 357 349 344 346 174 143 158 151 153 156 2 206 273 303 333 332 326
6 5 4 12 41 38 32 27 22 17 17 16 15 14 12 19 14 25 46 70 81 98 104 103 101 96 80 58 11 355 352 13 358 17 75 164 132 146 238 231 136 3 338 329 359 7 44
1 3 5 9 33 35 26 17 16 13 13 13 13 14 13 16 18 29 57 97 96 100 109 109 94 54 58 23 13 6 1 4 347 32 74 70 212 113 30 353 6 292 295 346 31 358 28
352 354 358 14 40 29 20 13 9 11 9 5 7 14 17 16 21 35 66 111 111 115 124 105 80 89 78 28 36 12 25 1 311 288 78 66 72 96 32 321 14 28 53 7 20 17 30
344 347 349 357 14 17 18 11 2 7 7 2 1 5 18 19 31 62 90 119 102 100 115 79 52 70 51 12 32 22 18 16 75 119 111 85 85 71 36 44 34 23 354 352 333 48 348
337 341 343 330 335 357 7 8 1 360 4 2 356 358 8 20 43 119 91 126 120 117 98 61 48 65 40 29 28 21 37 28 115 108 77 51 61 70 20 45 108 300 332 318 306 348 66
326 329 337 310 309 337 355 354 359 357 358 360 355 353 357 12 50 43 183 137 85 72 69 73 59 94 55 69 41 30 28 48 71 65 87 36 62 50 64 73 149 160 179 242 291 314 95
318 323 324 287 288 315 340 338 352 354 354 355 356 352 354 6 54 36 163 194 151 134 97 67 57 100 68 57 40 29 47 63 51 55 44 45 42 340 81 55 23 11 105 290 288 313 356
311 315 312 285 274 292 317 326 345 349 350 352 354 355 357 11 59 42 117 150 140 131 95 50 44 43 119 59 40 15 30 48 61 49 54 81 342 44 96 47 14 331 206 262 250 270 255
301 307 303 279 269 283 303 320 342 345 349 349 352 355 357 10 48 49 109 149 149 133 89 343 5 13 11 128 47 24 37 37 47 69 66 79 351 64 40 20 9 305 1 317 307 331 271
286 297 301 288 276 281 298 319 333 343 346 347 347 346 359 12 19 55 122 173 167 108 54 353 34 41 55 78 308 8 37 68 75 54 78 227 14 47 68 332 304 251 312 285 272 271 21
280 287 294 286 275 285 302 315 325 340 341 343 337 342 355 5 39 58 117 158 158 63 232 115 50 23 55 47 26 31 32 71 57 61 41 50 327 58 113 308 251 282 298 284 109 105 17
268 273 279 274 270 277 303 311 322 339 338 338 331 312 340 12 28 64 134 138 57 149 332 136 115 69 98 17 21 75 55 44 42 42 359 341 15 355 36 348 322 349 6 345 349 353 243
264 266 266 270 272 278 288 299 327 337 333 333 328 299 347 357 3 52 151 74 217 116 171 171 115 75 83 6 32 28 81 62 26 51 99 34 340 24 358 12 284 299 357 173 281 274 282
255 262 262 252 254 271 283 293 341 329 325 328 317 282 335 355 356 131 147 84 169 166 151 140 91 98 68 15 84 80 59 86 61 26 122 86 276 341 76 28 7 337 43 139 259 258 297
251 254 254 253 263 268 277 297 341 317 320 320 303 257 284 359 68 129 79 129 145 129 132 111 138 127 149 346 93 80 114 281 56 71 200 221 326 275 323 93 49 87 327 36 8 287 284
245 244 247 247 262 277 271 304 321 312 315 314 290 240 326 84 156 77 127 162 139 131 142 125 141 114 130 165 135 137 141 51 25 342 97 127 128 288 25 27 359 354 16 13 141 187 279
250 239 248 250 261 259 270 286 305 310 313 304 265 285 31 175 53 62 131 141 126 132 123 86 90 103 145 165 156 152 148 123 336 167 107 186 158 237 146 44 69 85 152 129 128 291 260
242 239 239 257 259 270 266 285 299 305 305 291 242 235 262 191 149 124 134 79 93 120 146 120 108 101 129 152 113 139 131 125 75 96 158 227 321 356 309 346 127 95 155 159 126 109 231
248 236 235 247 255 254 259 280 294 304 295 261 237 320 46 96 104 134 145 155 127 84 85 90 112 99 97 114 44 179 139 138 113 49 58 151 123 165 196 202 131 206 193 176 164 140 226
245 248 232 239 244 244 258 270 283 298 281 220 207 214 175 217 156 116 104 132 140 163 121 136 76 180 152 115 88 179 139 105 77 3 57 98 177 166 211 183 126 196 228 198 204 210 185
244 247 228 231 241 233 248 262 276 289 268 221 214 155 141 92 126 104 357 206 160 150 144 192 158 142 160 154 181 191 133 186 188 69 66 3 187 99 321 193 141 270 242 230 244 213 267
245 247 230 229 240 228 230 248 266 273 251 220 215 190 174 164 131 112 206 178 176 130 49 133 155 120 136 172 126 98 102 117 134 145 128 87 128 92 262 16 32 318 220 195 218 197 165
244 248 231 228 240 226 222 239 256 262 249 231 231 191 171 202 183 200 155 126 151 138 144 128 148 117 145 134 106 92 79 73 71 51 99 125 91 86 189 35 9 248 267 147 205 236 218
247 245 225 227 234 224 222 236 246 255 242 238 229 202 191 158 158 147 141 116 109 104 88 119 141 184 151 128 74 61 5 21 330 36 358 78 123 80 136 186 298 336 196 173 166 278 196
247 245 222 228 234 222 223 224 248 246 255 232 224 211 205 139 219 151 133 157 138 120 38 91 127 149 152 103 102 162 197 186 227 322 109 66 76 114 94 145 224 233 197 142 113 291 204
226 223 219 228 227 218 214 216 245 245 241 214 212 207 207 167 164 159 165 180 152 132 116 138 152 174 194 118 130 172 225 156 181 180 172 127 10 168 171 215 287 206 148 134 92 236 183
214 215 219 215 217 212 205 223 227 243 223 215 215 209 209 206 174 187 175 159 158 168 151 151 109 190 115 183 165 199 157 210 137 187 181 170 151 188 86 95 278 152 123 166 205 148 185
207 212 203 215 214 204 196 212 230 221 211 216 221 214 212 215 167 188 189 183 187 184 160 168 181 156 168 126 195 108 170 146 151 243 13 262 191 180 184 211 160 179 203 198 174 195 247